Rechercher aéroport 
image banner adimage banner adimage banner ad
image banner ad

50CL - L A Co Sheriff Lakewood

Situé à Lakewood, United States

ICAO - 50CL, IATA -

Données fournies par Airmate  

Information générale

Coordonnées: N33°51'6" W118°7'58"
Élévation : 58 feet MSL.
Variation magnétique : 14° East
Voir autres Aéroports à California

Données opérationnelles

Special qualification required
Heure actuelle UTC:
Heure actuelle locale:
METAR: KLGB 270353Z 30006KT 10SM OVC020 21/17 A2995 RMK AO2 SLP142 T02060167
TAF: KLGB 262342Z 2700/2724 29008KT P6SM BKN020 OVC120 FM270400 VRB03KT P6SM OVC015 FM271800 21008KT P6SM SKC
Voir NOTAMs / SUP AIP / TFR affectant cet aéroport [VIEW]
Fréquences de communication: [VIEW]

Pistes:

Coordonnées de l'aéroport

Adresse: Lakewood United States

Vue satellite de 50CL